Location: Berg
(47.2344°N, 9.5296°E)
Time: 21:34:34
(UTC+00:00)

NOSS 2-1 (E) - Pass Details

Date: 24 January 2021
Orbit: 434 x 1768 km, 63.3° (Epoch: 27 February)

Event Time Altitude Azimuth Distance (km) Brightness Sun altitude
Rises 17:43:42 0° 206° (SSW) 2,458 7.2 -15.4°
Reaches altitude 10° 17:45:49 10° 200° (SSW) 1,547 6.0 -15.8°
Maximum altitude 17:49:01 49° 124° (SE) 574 3.1 -16.3°
Enters shadow 17:49:42 41° 84° (E) 657 3.2 -16.4°
